Location: Newark
(39.6867°N, 100.6772°W)
Time: 11:53:33
(UTC+00:00)

Vanguard 1 - Pass Details

Date: 13 October 2019
Orbit: 652 x 3831 km, 34.2° (Epoch: 12 November)

Event Time Altitude Azimuth Distance (km) Brightness Sun altitude
Rises 07:27:17 0° 278° (W) 6,322 - -55.5°
Reaches altitude 10° 07:30:54 10° 275° (W) 5,644 - -55.1°
Maximum altitude 07:49:40 64° 200° (SSW) 3,967 - -53.3°
Exits shadow 08:00:19 41° 140° (SE) 4,837 13.2 -52.1°
Drops below altitude 10° 08:12:31 10° 126° (SE) 6,658 14.3 -50.5°
Sets 08:17:16 0° 123° (ESE) 7,453 14.7 -49.9°
